• In Austria
  • List of Countries
  • For 7 days
  • Water Temperature
  • Satellite Maps
  • Weather Map
  • News
  • Weather Widgets
  • user-avatar
    Login

    Hourly Weather Saurimo

    Today, 18 December, Monday

    Time Temperature Precipitation Wind Pressure Humidity
    00:00 +20°C° 0 mm 1 mps 670 mmHg 94%
    01:00 +20°C° 0 mm 1 mps 669 mmHg 94%
    02:00 +20°C° 0 mm 1 mps 669 mmHg 94%
    03:00 +20°C° 0 mm 1 mps 669 mmHg 94%
    04:00 +20°C° 0 mm 1 mps 669 mmHg 94%
    05:00 +20°C° 0.1 mm 1 mps 670 mmHg 92%
    06:00 +21°C° 0.1 mm 1 mps 670 mmHg 91%
    07:00 +20°C° 0 mm 0 mps 671 mmHg 89%
    08:00 +21°C° 0.6 mm 0 mps 671 mmHg 89%
    09:00 +23°C° 0.6 mm 1 mps 671 mmHg 89%
    10:00 +23°C° 0.6 mm 1 mps 671 mmHg 90%
    11:00 +24°C° 0.4 mm 1 mps 670 mmHg 89%
    12:00 +24°C° 0.4 mm 1 mps 669 mmHg 88%
    13:00 +24°C° 0.4 mm 1 mps 669 mmHg 87%
    14:00 +24°C° 0.3 mm 1 mps 668 mmHg 89%
    15:00 +24°C° 0.3 mm 1 mps 668 mmHg 91%
    16:00 +23°C° 0.3 mm 1 mps 667 mmHg 92%
    17:00 +22°C° 0.1 mm 1 mps 667 mmHg 93%
    18:00 +22°C° 0.1 mm 1 mps 668 mmHg 94%
    19:00 +21°C° 0.1 mm 1 mps 668 mmHg 95%
    20:00 +21°C° 0.1 mm 1 mps 668 mmHg 95%
    21:00 +20°C° 0.1 mm 1 mps 669 mmHg 94%
    22:00 +20°C° 0.1 mm 1 mps 669 mmHg 94%
    23:00 +20°C° 0 mm 1 mps 669 mmHg 94%

    Tomorrow, 19 December, Tuesday

    Time Temperature Precipitation Wind Pressure Humidity
    00:00 +19°C° 0 mm 1 mps 668 mmHg 95%
    01:00 +19°C° 0 mm 1 mps 668 mmHg 95%
    02:00 +19°C° 0.1 mm 1 mps 668 mmHg 96%
    03:00 +19°C° 0.1 mm 1 mps 668 mmHg 96%
    04:00 +17°C° 0.1 mm 0 mps 668 mmHg 96%
    05:00 +17°C° 0.2 mm 0 mps 669 mmHg 96%
    06:00 +18°C° 0.2 mm 0 mps 669 mmHg 96%
    07:00 +19°C° 0.2 mm 0 mps 669 mmHg 95%
    08:00 +22°C° 0.5 mm 1 mps 670 mmHg 93%
    09:00 +23°C° 0.5 mm 1 mps 670 mmHg 90%
    10:00 +24°C° 0.5 mm 2 mps 670 mmHg 88%
    11:00 +25°C° 0.9 mm 2 mps 670 mmHg 87%
    12:00 +25°C° 0.9 mm 2 mps 669 mmHg 86%
    13:00 +26°C° 0.9 mm 3 mps 669 mmHg 86%
    14:00 +25°C° 1.1 mm 3 mps 669 mmHg 88%
    15:00 +24°C° 1.1 mm 3 mps 668 mmHg 90%
    16:00 +24°C° 1.1 mm 3 mps 668 mmHg 92%
    17:00 +23°C° 1.1 mm 2 mps 668 mmHg 93%
    18:00 +21°C° 1.1 mm 2 mps 669 mmHg 94%
    19:00 +20°C° 1.1 mm 2 mps 669 mmHg 96%
    20:00 +20°C° 0.5 mm 2 mps 669 mmHg 96%
    21:00 +21°C° 0.5 mm 1 mps 670 mmHg 97%
    22:00 +20°C° 0.5 mm 1 mps 670 mmHg 97%
    23:00 +20°C° 0.7 mm 1 mps 670 mmHg 97%

    Day after tomorrow, 20 December, Wednesday

    Time Temperature Precipitation Wind Pressure Humidity
    00:00 +20°C° 0.7 mm 1 mps 669 mmHg 98%
    01:00 +20°C° 0.7 mm 1 mps 669 mmHg 98%
    02:00 +20°C° 0.5 mm 1 mps 669 mmHg 98%
    03:00 +20°C° 0.5 mm 1 mps 669 mmHg 98%
    04:00 +20°C° 0.5 mm 1 mps 668 mmHg 98%
    05:00 +20°C° 0.3 mm 1 mps 669 mmHg 97%
    06:00 +20°C° 0.3 mm 1 mps 669 mmHg 97%
    07:00 +20°C° 0.3 mm 2 mps 670 mmHg 96%
    08:00 +21°C° 0.3 mm 2 mps 670 mmHg 93%
    09:00 +23°C° 0.3 mm 2 mps 671 mmHg 89%
    10:00 +24°C° 0.3 mm 2 mps 671 mmHg 85%
    11:00 +24°C° 0.5 mm 2 mps 671 mmHg 83%
    12:00 +25°C° 0.5 mm 3 mps 670 mmHg 81%
    13:00 +25°C° 0.5 mm 3 mps 670 mmHg 79%
    14:00 +25°C° 0.4 mm 2 mps 670 mmHg 81%
    15:00 +25°C° 0.4 mm 2 mps 669 mmHg 83%
    16:00 +24°C° 0.4 mm 1 mps 669 mmHg 85%
    17:00 +23°C° 0.3 mm 1 mps 669 mmHg 89%
    18:00 +22°C° 0.3 mm 1 mps 670 mmHg 92%
    19:00 +21°C° 0.3 mm 1 mps 670 mmHg 95%
    20:00 +21°C° 0.3 mm 1 mps 670 mmHg 96%
    21:00 +20°C° 0.3 mm 1 mps 671 mmHg 96%
    22:00 +20°C° 0.3 mm 1 mps 671 mmHg 97%
    23:00 +20°C° 0.6 mm 1 mps 671 mmHg 97%

    21 December, Thursday

    Time Temperature Precipitation Wind Pressure Humidity
    00:00 +20°C° 0.6 mm 1 mps 671 mmHg 97%
    01:00 +20°C° 0.6 mm 1 mps 670 mmHg 98%
    02:00 +20°C° 0.3 mm 1 mps 670 mmHg 98%
    03:00 +20°C° 0.3 mm 1 mps 670 mmHg 98%
    04:00 +19°C° 0.3 mm 1 mps 670 mmHg 98%
    05:00 +18°C° 0.1 mm 0 mps 670 mmHg 97%
    06:00 +18°C° 0.1 mm 0 mps 671 mmHg 96%
    07:00 +19°C° 0.1 mm 0 mps 672 mmHg 95%
    08:00 +22°C° 0.2 mm 1 mps 672 mmHg 89%
    09:00 +23°C° 0.2 mm 1 mps 672 mmHg 83%
    10:00 +24°C° 0.2 mm 2 mps 673 mmHg 77%
    11:00 +24°C° 0.4 mm 2 mps 672 mmHg 78%
    12:00 +24°C° 0.4 mm 2 mps 671 mmHg 80%
    13:00 +24°C° 0.4 mm 2 mps 671 mmHg 81%
    14:00 +23°C° 0.3 mm 2 mps 670 mmHg 83%
    15:00 +23°C° 0.3 mm 1 mps 670 mmHg 84%
    16:00 +23°C° 0.3 mm 1 mps 669 mmHg 85%
    17:00 +22°C° 0 mm 1 mps 670 mmHg 87%
    18:00 +21°C° 0 mm 1 mps 670 mmHg 89%
    19:00 +20°C° 0 mm 1 mps 670 mmHg 91%
    20:00 +18°C° 0 mm 0 mps 670 mmHg 91%
    21:00 +17°C° 0 mm 0 mps 670 mmHg 92%
    22:00 +17°C° 0 mm 0 mps 671 mmHg 92%
    23:00 +17°C° 0 mm 0 mps 670 mmHg 93%

    22 December, Friday

    Time Temperature Precipitation Wind Pressure Humidity
    00:00 +17°C° 0 mm 0 mps 670 mmHg 93%
    01:00 +17°C° 0 mm 0 mps 670 mmHg 94%
    02:00 +16°C° 0 mm 0 mps 670 mmHg 94%
    03:00 +16°C° 0 mm 0 mps 670 mmHg 95%
    04:00 +16°C° 0 mm 0 mps 669 mmHg 96%
    05:00 +17°C° 0 mm 0 mps 670 mmHg 94%
    06:00 +18°C° 0 mm 0 mps 671 mmHg 92%
    07:00 +19°C° 0 mm 0 mps 671 mmHg 89%
    08:00 +22°C° 0.1 mm 1 mps 672 mmHg 86%
    09:00 +23°C° 0.1 mm 1 mps 672 mmHg 82%
    10:00 +24°C° 0.1 mm 1 mps 672 mmHg 79%
    11:00 +25°C° 0.1 mm 2 mps 671 mmHg 72%
    12:00 +26°C° 0.1 mm 2 mps 671 mmHg 66%
    13:00 +28°C° 0.1 mm 2 mps 670 mmHg 59%
    14:00 +27°C° 0.1 mm 2 mps 670 mmHg 63%
    15:00 +27°C° 0.1 mm 2 mps 670 mmHg 67%
    16:00 +27°C° 0.1 mm 2 mps 669 mmHg 71%
    17:00 +25°C° 0.3 mm 2 mps 669 mmHg 79%
    18:00 +23°C° 0.3 mm 1 mps 669 mmHg 86%
    19:00 +21°C° 0.3 mm 1 mps 669 mmHg 93%
    20:00 +21°C° 0 mm 1 mps 669 mmHg 94%
    21:00 +20°C° 0 mm 1 mps 669 mmHg 94%
    22:00 +18°C° 0 mm 0 mps 670 mmHg 95%
    23:00 +17°C° 0 mm 0 mps 669 mmHg 95%

    23 December, Saturday

    Time Temperature Precipitation Wind Pressure Humidity
    00:00 +17°C° 0 mm 0 mps 669 mmHg 95%
    01:00 +17°C° 0 mm 0 mps 668 mmHg 96%
    02:00 +17°C° 0 mm 0 mps 668 mmHg 96%
    03:00 +18°C° 0 mm 1 mps 668 mmHg 96%
    04:00 +18°C° 0 mm 1 mps 668 mmHg 96%
    05:00 +19°C° 0.2 mm 1 mps 669 mmHg 95%
    06:00 +20°C° 0.2 mm 1 mps 670 mmHg 94%
    07:00 +20°C° 0.2 mm 1 mps 670 mmHg 93%
    08:00 +22°C° 0.2 mm 1 mps 670 mmHg 90%
    09:00 +23°C° 0.2 mm 1 mps 670 mmHg 86%
    10:00 +24°C° 0.2 mm 1 mps 671 mmHg 82%
    11:00 +26°C° 0.3 mm 1 mps 670 mmHg 74%
    12:00 +27°C° 0.3 mm 2 mps 670 mmHg 67%
    13:00 +29°C° 0.3 mm 2 mps 669 mmHg 59%
    14:00 +29°C° 0.7 mm 2 mps 669 mmHg 65%
    15:00 +28°C° 0.7 mm 2 mps 668 mmHg 70%
    16:00 +28°C° 0.7 mm 2 mps 668 mmHg 76%
    17:00 +26°C° 0.7 mm 2 mps 668 mmHg 82%
    18:00 +24°C° 0.7 mm 2 mps 669 mmHg 88%
    19:00 +22°C° 0.7 mm 1 mps 669 mmHg 93%
    20:00 +21°C° 0.2 mm 1 mps 669 mmHg 94%
    21:00 +21°C° 0.2 mm 1 mps 669 mmHg 94%
    22:00 +20°C° 0.2 mm 1 mps 669 mmHg 95%
    23:00 +20°C° 0 mm 1 mps 668 mmHg 95%
    Show more